Location: Kellogg
(38.0159°N, 90.0546°W)
Time: 20:30:42
(UTC+00:00)

Envisat - Pass Details

Date: 08 August 2024
Orbit: 762 x 764 km, 98.3° (Epoch: 12 September)

Event Time Altitude Azimuth Distance (km) Brightness Sun altitude
Rises 08:07:28 0° 29° (NNE) 3,233 7.5 -28.9°
Reaches altitude 10° 08:10:22 10° 46° (NE) 2,301 6.4 -28.6°
Maximum altitude 08:14:05 20° 94° (E) 1,692 5.1 -28.2°
Enters shadow 08:16:09 16° 124° (SE) 1,896 5.0 -28.0°
